DAL564 KATL-KMIA

Flight info

Callsign DAL564
Flight time N/A
Altitude 36000
Route BANNG3 LUCKK HONID FROGZ5
Aircraft B752/M-SDE3FGHIM3RWXY/LB1

Departure

Time N/A
Airport Hartsfield Jackson Atlanta International Airport (KATL)

Arrival

Time 2026-05-05 21:14
Airport Miami International Airport (KMIA)
Time Latitude Longitude Altitude Speed Heading
2026-05-05 20:51 26.07599 -81.40997 35969 ft 526 kts 113°
2026-05-05 20:51 26.04423 -81.33713 35960 ft 526 kts 113°
2026-05-05 20:52 26.01253 -81.26442 35941 ft 524 kts 113°
2026-05-05 20:52 25.99570 -81.22840 35587 ft 530 kts 119°
2026-05-05 20:52 25.97471 -81.19463 34786 ft 533 kts 129°
2026-05-05 20:53 25.94959 -81.16453 34003 ft 531 kts 138°
2026-05-05 20:53 25.92107 -81.13892 33222 ft 529 kts 147°
2026-05-05 20:53 25.88992 -81.11821 32351 ft 521 kts 156°
2026-05-05 20:53 25.85683 -81.10279 31374 ft 514 kts 166°
2026-05-05 20:54 25.82228 -81.09300 30392 ft 505 kts 175°
2026-05-05 20:54 25.78787 -81.08912 29425 ft 495 kts 184°
2026-05-05 20:54 25.75404 -81.09098 28467 ft 483 kts 194°
2026-05-05 20:54 25.72161 -81.09840 27492 ft 466 kts 203°
2026-05-05 20:55 25.69213 -81.11079 26553 ft 449 kts 213°
2026-05-05 20:55 25.66585 -81.12775 25610 ft 432 kts 222°
2026-05-05 20:55 25.64338 -81.14867 24665 ft 415 kts 232°
2026-05-05 20:55 25.62535 -81.17281 23723 ft 400 kts 242°
2026-05-05 20:56 25.61196 -81.19904 22781 ft 388 kts 247°
2026-05-05 20:56 25.59744 -81.22398 21876 ft 387 kts 236°
2026-05-05 20:56 25.57876 -81.24500 21023 ft 387 kts 223°
2026-05-05 20:56 25.55586 -81.26019 20170 ft 389 kts 207°
2026-05-05 20:57 25.53000 -81.26830 19317 ft 392 kts 192°
2026-05-05 20:57 25.50267 -81.26869 18488 ft 393 kts 175°
2026-05-05 20:57 25.47635 -81.26128 17635 ft 393 kts 159°
2026-05-05 20:57 25.45275 -81.24664 16768 ft 391 kts 143°
2026-05-05 20:58 25.43372 -81.22579 16058 ft 385 kts 126°
2026-05-05 20:58 25.42072 -81.20026 15644 ft 381 kts 110°
2026-05-05 20:58 25.41446 -81.17211 15212 ft 376 kts 93°
2026-05-05 20:58 25.41475 -81.14351 14917 ft 366 kts 83°
2026-05-05 20:59 25.41672 -81.11594 14636 ft 359 kts 83°
2026-05-05 20:59 25.41870 -81.08847 14311 ft 353 kts 83°
2026-05-05 20:59 25.42065 -81.06185 14009 ft 348 kts 83°
2026-05-05 20:59 25.42264 -81.03528 13734 ft 342 kts 83°
2026-05-05 21:00 25.42457 -81.00926 13449 ft 337 kts 83°
2026-05-05 21:00 25.42654 -80.98360 13192 ft 331 kts 83°
2026-05-05 21:00 25.42849 -80.95853 12949 ft 325 kts 83°
2026-05-05 21:00 25.43046 -80.93401 12705 ft 319 kts 83°
2026-05-05 21:01 25.43242 -80.90988 12462 ft 314 kts 83°
2026-05-05 21:01 25.43442 -80.88585 12202 ft 311 kts 83°
2026-05-05 21:01 25.43639 -80.86218 11961 ft 312 kts 83°
2026-05-05 21:01 25.43845 -80.83810 11742 ft 312 kts 83°
2026-05-05 21:02 25.44050 -80.81431 11506 ft 311 kts 83°
2026-05-05 21:02 25.44258 -80.79050 11278 ft 310 kts 83°
2026-05-05 21:02 25.44466 -80.76714 11052 ft 308 kts 83°
2026-05-05 21:02 25.44678 -80.74358 10800 ft 306 kts 83°
2026-05-05 21:03 25.44890 -80.72019 10560 ft 305 kts 83°
2026-05-05 21:03 25.45107 -80.69675 10319 ft 304 kts 83°
2026-05-05 21:03 25.45322 -80.67384 10088 ft 302 kts 83°
2026-05-05 21:03 25.45544 -80.65057 9843 ft 301 kts 83°
2026-05-05 21:04 25.46025 -80.62848 9510 ft 298 kts 60°
2026-05-05 21:04 25.47256 -80.61077 9105 ft 287 kts 33°
2026-05-05 21:04 25.48981 -80.60159 8748 ft 267 kts
2026-05-05 21:04 25.50774 -80.60239 8378 ft 251 kts 341°
2026-05-05 21:05 25.52403 -80.60781 7959 ft 245 kts 340°
2026-05-05 21:05 25.54046 -80.61311 7536 ft 242 kts 343°
2026-05-05 21:05 25.55690 -80.61595 7116 ft 240 kts 355°
2026-05-05 21:05 25.57379 -80.61581 6773 ft 243 kts
2026-05-05 21:06 25.59064 -80.61398 6432 ft 244 kts
2026-05-05 21:06 25.60733 -80.61120 5994 ft 242 kts
2026-05-05 21:06 25.62384 -80.60778 5631 ft 236 kts
2026-05-05 21:06 25.63999 -80.60408 5265 ft 237 kts 10°
2026-05-05 21:07 25.65588 -80.60020 4982 ft 235 kts 11°
2026-05-05 21:07 25.67196 -80.59616 4692 ft 233 kts 11°
2026-05-05 21:07 25.68773 -80.59211 4408 ft 231 kts 12°
2026-05-05 21:07 25.70327 -80.58807 4074 ft 228 kts 12°
2026-05-05 21:08 25.71846 -80.58408 3764 ft 218 kts 12°
2026-05-05 21:08 25.73282 -80.58030 3665 ft 204 kts 12°
2026-05-05 21:08 25.74620 -80.57677 3599 ft 193 kts 12°
2026-05-05 21:08 25.75934 -80.57325 3501 ft 196 kts 15°
2026-05-05 21:09 25.77122 -80.56596 3412 ft 196 kts 41°
2026-05-05 21:09 25.77727 -80.55280 3324 ft 192 kts 84°
2026-05-05 21:09 25.77737 -80.53801 3265 ft 196 kts 89°
2026-05-05 21:09 25.77716 -80.52265 3169 ft 197 kts 88°
2026-05-05 21:10 25.77777 -80.50770 3070 ft 194 kts 85°
2026-05-05 21:10 25.77854 -80.49284 2978 ft 193 kts 86°
2026-05-05 21:10 25.77920 -80.47778 2808 ft 198 kts 85°
2026-05-05 21:10 25.77986 -80.46253 2567 ft 195 kts 86°
2026-05-05 21:11 25.78045 -80.44823 2332 ft 179 kts 85°
2026-05-05 21:11 25.78096 -80.43520 2142 ft 159 kts 85°
2026-05-05 21:11 25.78146 -80.42351 1896 ft 143 kts 84°
2026-05-05 21:11 25.78194 -80.41267 1672 ft 143 kts 85°
2026-05-05 21:12 25.78240 -80.40163 1517 ft 144 kts 85°
2026-05-05 21:12 25.78279 -80.39059 1370 ft 143 kts 86°
2026-05-05 21:12 25.78303 -80.37953 1197 ft 144 kts 86°
2026-05-05 21:12 25.78358 -80.36848 1019 ft 144 kts 85°
2026-05-05 21:13 25.78418 -80.35744 828 ft 141 kts 85°
2026-05-05 21:13 25.78470 -80.34676 643 ft 139 kts 86°
2026-05-05 21:13 25.78512 -80.33610 455 ft 136 kts 87°
2026-05-05 21:13 25.78561 -80.32578 280 ft 132 kts 87°
2026-05-05 21:14 25.78605 -80.31580 114 ft 131 kts 87°
2026-05-05 21:14 25.78646 -80.30557 19 ft 128 kts 87°
2026-05-05 21:14 25.78684 -80.29692 14 ft 87 kts 88°
2026-05-05 21:14 25.78704 -80.29204 17 ft 45 kts 87°
2026-05-05 21:15 25.78719 -80.28901 17 ft 37 kts 82°
2026-05-05 21:15 25.78805 -80.28693 17 ft 28 kts 40°
2026-05-05 21:15 25.78954 -80.28561 17 ft 26 kts 36°
2026-05-05 21:15 25.79092 -80.28455 14 ft 15 kts 33°
2026-05-05 21:16 25.79162 -80.28402 14 ft 10 kts 57°
2026-05-05 21:16 25.79152 -80.28341 14 ft 7 kts 117°
2026-05-05 21:16 25.79145 -80.28327 14 ft 0 kts 117°